Time,TemperatureF,DewpointF,PressureIn,WindDirection,WindDirectionDegrees,WindSpeedMPH,WindSpeedGustMPH,Humidity,HourlyPrecipIn,Conditions,Clouds,dailyrainin,SoftwareType,DateUTC
2013-10-10 00:14:00,53.0,52.0,29.29,North,0,0.0,0.0,97,0.00,,,0.00,,2013-10-10 04:14:00,
2013-10-10 00:24:00,53.0,52.0,29.29,North,0,0.0,0.0,97,0.00,,,0.00,,2013-10-10 04:24:00,
2013-10-10 00:52:00,53.0,52.0,29.29,North,0,0.0,0.0,97,0.00,,,0.00,,2013-10-10 04:52:00,
2013-10-10 01:03:00,53.0,52.0,29.29,North,0,0.0,0.0,97,0.00,,,0.00,,2013-10-10 05:03:00,
2013-10-10 01:12:00,53.0,52.0,29.29,North,0,0.0,0.0,97,0.00,,,0.00,,2013-10-10 05:12:00,
2013-10-10 01:23:00,52.0,51.0,29.29,North,0,0.0,0.0,97,0.00,,,0.00,,2013-10-10 05:23:00,
2013-10-10 01:43:00,52.0,51.0,29.29,North,0,0.0,0.0,97,0.00,,,0.00,,2013-10-10 05:43:00,
2013-10-10 01:53:00,52.0,51.0,29.29,North,0,0.0,0.0,97,0.00,,,0.00,,2013-10-10 05:53:00,
2013-10-10 02:13:00,52.0,51.0,29.29,North,0,0.0,0.0,97,0.00,,,0.00,,2013-10-10 06:13:00,
2013-10-10 02:22:00,51.0,50.0,29.29,North,0,0.0,0.0,97,0.00,,,0.00,,2013-10-10 06:22:00,
2013-10-10 02:33:00,51.0,50.0,29.29,North,0,0.0,0.0,97,0.00,,,0.00,,2013-10-10 06:33:00,
2013-10-10 02:42:00,51.0,50.0,29.29,North,0,0.0,0.0,97,0.00,,,0.00,,2013-10-10 06:42:00,
2013-10-10 02:53:00,51.0,50.0,29.29,North,0,0.0,0.0,97,0.00,,,0.00,,2013-10-10 06:53:00,
2013-10-10 03:11:00,51.0,50.0,29.29,North,0,0.0,0.0,97,0.00,,,0.00,,2013-10-10 07:11:00,
2013-10-10 03:21:00,51.0,50.0,29.29,North,0,0.0,0.0,97,0.00,,,0.00,,2013-10-10 07:21:00,
2013-10-10 03:42:00,51.0,50.0,29.26,North,0,0.0,0.0,97,0.00,,,0.00,,2013-10-10 07:42:00,
2013-10-10 03:52:00,51.0,50.0,29.26,North,0,0.0,0.0,97,0.00,,,0.00,,2013-10-10 07:52:00,
2013-10-10 04:11:00,51.0,50.0,29.26,North,0,0.0,0.0,97,0.00,,,0.00,,2013-10-10 08:11:00,
2013-10-10 04:22:00,51.0,50.0,29.26,North,0,0.0,0.0,97,0.00,,,0.00,,2013-10-10 08:22:00,
2013-10-10 04:43:00,51.0,50.0,29.26,North,0,0.0,0.0,97,0.00,,,0.00,,2013-10-10 08:43:00,
2013-10-10 04:52:00,51.0,50.0,29.26,North,0,0.0,0.0,97,0.00,,,0.00,,2013-10-10 08:52:00,
2013-10-10 05:12:00,51.0,50.0,29.26,North,0,0.0,0.0,97,0.00,,,0.00,,2013-10-10 09:12:00,
2013-10-10 05:22:00,51.0,50.0,29.29,North,0,0.0,0.0,97,0.00,,,0.00,,2013-10-10 09:22:00,
2013-10-10 05:30:00,51.0,50.0,29.29,North,0,0.0,0.0,97,0.00,,,0.00,,2013-10-10 09:30:00,
2013-10-10 05:43:00,51.0,50.0,29.29,North,0,0.0,0.0,97,0.00,,,0.00,,2013-10-10 09:43:00,
2013-10-10 05:54:00,51.0,50.0,29.29,North,0,0.0,0.0,97,0.00,,,0.00,,2013-10-10 09:54:00,
2013-10-10 06:03:00,51.0,50.0,29.29,North,0,0.0,0.0,97,0.00,,,0.00,,2013-10-10 10:03:00,
2013-10-10 06:13:00,51.0,50.0,29.29,North,0,0.0,0.0,97,0.00,,,0.00,,2013-10-10 10:13:00,
2013-10-10 06:23:00,51.0,50.0,29.29,North,0,0.0,0.0,97,0.00,,,0.00,,2013-10-10 10:23:00,
2013-10-10 07:12:00,51.0,50.0,29.29,North,0,0.0,0.0,97,0.00,,,0.00,,2013-10-10 11:12:00,
2013-10-10 07:22:00,51.0,50.0,29.29,North,0,0.0,0.0,97,0.00,,,0.00,,2013-10-10 11:22:00,
2013-10-10 07:33:00,51.0,50.0,29.29,North,0,0.0,0.0,97,0.00,,,0.00,,2013-10-10 11:33:00,
2013-10-10 07:42:00,51.0,50.0,29.29,North,0,0.0,0.0,97,0.00,,,0.00,,2013-10-10 11:42:00,
2013-10-10 07:57:00,51.0,50.0,29.29,North,0,0.0,0.0,97,0.00,,,0.00,,2013-10-10 11:57:00,
2013-10-10 08:12:00,51.0,50.0,29.29,North,0,0.0,0.0,97,0.00,,,0.00,,2013-10-10 12:12:00,
2013-10-10 08:21:00,52.0,51.0,29.29,North,0,0.0,0.0,97,0.00,,,0.00,,2013-10-10 12:21:00,
2013-10-10 08:42:00,52.0,51.0,29.29,North,0,0.0,0.0,97,0.00,,,0.00,,2013-10-10 12:42:00,
2013-10-10 08:52:00,52.0,51.0,29.32,North,0,0.0,0.0,97,0.00,,,0.00,,2013-10-10 12:52:00,
2013-10-10 09:12:00,53.0,52.0,29.32,North,0,0.0,0.0,97,0.00,,,0.00,,2013-10-10 13:12:00,
2013-10-10 09:21:00,53.0,52.0,29.32,North,0,0.0,0.0,97,0.00,,,0.00,,2013-10-10 13:21:00,
2013-10-10 09:31:00,53.0,52.0,29.32,North,0,0.0,0.0,97,0.00,,,0.00,,2013-10-10 13:31:00,
2013-10-10 09:42:00,53.0,52.0,29.32,North,0,0.0,0.0,97,0.00,,,0.00,,2013-10-10 13:42:00,
2013-10-10 10:22:00,59.0,58.0,29.32,North,0,0.0,0.0,97,0.00,,,0.00,,2013-10-10 14:22:00,
2013-10-10 10:42:00,60.0,58.0,29.32,North,0,0.0,0.0,92,0.00,,,0.00,,2013-10-10 14:42:00,
2013-10-10 10:52:00,61.0,57.0,29.32,North,0,0.0,0.0,88,0.00,,,0.00,,2013-10-10 14:52:00,
2013-10-10 11:11:00,64.0,58.0,29.32,North,0,0.0,0.0,81,0.00,,,0.00,,2013-10-10 15:11:00,
2013-10-10 11:22:00,66.0,57.0,29.32,North,0,0.0,0.0,73,0.00,,,0.00,,2013-10-10 15:22:00,
2013-10-10 11:43:00,67.0,58.0,29.32,North,0,0.0,0.0,72,0.00,,,0.00,,2013-10-10 15:43:00,
2013-10-10 11:54:00,68.0,55.0,29.32,North,0,0.0,0.0,63,0.00,,,0.00,,2013-10-10 15:54:00,
2013-10-10 12:13:00,70.0,54.0,29.32,North,0,0.0,0.0,57,0.00,,,0.00,,2013-10-10 16:13:00,
2013-10-10 12:23:00,70.0,54.0,29.32,North,0,0.0,0.0,57,0.00,,,0.00,,2013-10-10 16:23:00,
2013-10-10 12:42:00,71.0,52.0,29.29,North,0,0.0,0.0,51,0.00,,,0.00,,2013-10-10 16:42:00,
2013-10-10 12:53:00,72.0,51.0,29.29,North,0,0.0,0.0,47,0.00,,,0.00,,2013-10-10 16:53:00,
2013-10-10 13:12:00,72.0,51.0,29.29,North,0,0.0,0.0,47,0.00,,,0.00,,2013-10-10 17:12:00,
2013-10-10 13:23:00,72.0,49.0,29.29,North,0,0.0,0.0,44,0.00,,,0.00,,2013-10-10 17:23:00,
2013-10-10 13:33:00,72.0,49.0,29.29,North,0,0.0,0.0,44,0.00,,,0.00,,2013-10-10 17:33:00,
2013-10-10 13:42:00,72.0,49.0,29.29,North,0,0.0,0.0,44,0.00,,,0.00,,2013-10-10 17:42:00,
2013-10-10 13:53:00,74.0,49.0,29.29,North,0,0.0,0.0,41,0.00,,,0.00,,2013-10-10 17:53:00,
2013-10-10 14:12:00,72.0,48.0,29.26,North,0,0.0,0.0,42,0.00,,,0.00,,2013-10-10 18:12:00,
2013-10-10 14:21:00,72.0,48.0,29.26,North,0,0.0,0.0,42,0.00,,,0.00,,2013-10-10 18:21:00,
2013-10-10 14:32:00,72.0,48.0,29.26,North,0,0.0,0.0,42,0.00,,,0.00,,2013-10-10 18:32:00,
2013-10-10 14:42:00,72.0,48.0,29.26,North,0,0.0,0.0,42,0.00,,,0.00,,2013-10-10 18:42:00,
2013-10-10 14:52:00,72.0,48.0,29.26,North,0,0.0,0.0,42,0.00,,,0.00,,2013-10-10 18:52:00,
2013-10-10 15:11:00,74.0,49.0,29.23,North,0,0.0,0.0,42,0.00,,,0.00,,2013-10-10 19:11:00,
2013-10-10 15:22:00,74.0,49.0,29.23,North,0,0.0,0.0,41,0.00,,,0.00,,2013-10-10 19:22:00,
2013-10-10 15:42:00,74.0,49.0,29.23,North,0,0.0,0.0,42,0.00,,,0.00,,2013-10-10 19:42:00,
2013-10-10 15:51:00,74.0,49.0,29.23,North,0,0.0,0.0,42,0.00,,,0.00,,2013-10-10 19:51:00,
2013-10-10 15:52:00,74.0,49.0,29.23,North,0,0.0,0.0,41,0.00,,,0.00,,2013-10-10 19:52:00,
2013-10-10 16:12:00,73.0,48.0,29.23,North,0,0.0,0.0,41,0.00,,,0.00,,2013-10-10 20:12:00,
2013-10-10 16:22:00,74.0,49.0,29.23,North,0,0.0,0.0,42,0.00,,,0.00,,2013-10-10 20:22:00,
2013-10-10 16:32:00,74.0,49.0,29.23,North,0,0.0,0.0,42,0.00,,,0.00,,2013-10-10 20:32:00,
2013-10-10 16:42:00,74.0,49.0,29.23,North,0,0.0,0.0,42,0.00,,,0.00,,2013-10-10 20:42:00,
2013-10-10 17:12:00,74.0,49.0,29.21,North,0,0.0,0.0,41,0.00,,,0.00,,2013-10-10 21:12:00,
2013-10-10 17:22:00,73.0,48.0,29.21,North,0,0.0,0.0,41,0.00,,,0.00,,2013-10-10 21:22:00,
2013-10-10 17:34:00,73.0,48.0,29.21,North,0,0.0,0.0,41,0.00,,,0.00,,2013-10-10 21:34:00,
2013-10-10 17:44:00,73.0,48.0,29.21,North,0,0.0,0.0,41,0.00,,,0.00,,2013-10-10 21:44:00,
2013-10-10 17:54:00,72.0,48.0,29.21,North,0,0.0,0.0,42,0.00,,,0.00,,2013-10-10 21:54:00,
2013-10-10 18:13:00,72.0,48.0,29.21,North,0,0.0,0.0,43,0.00,,,0.00,,2013-10-10 22:13:00,
2013-10-10 18:24:00,71.0,47.0,29.21,North,0,0.0,0.0,43,0.00,,,0.00,,2013-10-10 22:24:00,
2013-10-10 18:43:00,70.0,47.0,29.21,North,0,0.0,0.0,44,0.00,,,0.00,,2013-10-10 22:43:00,
2013-10-10 18:53:00,70.0,48.0,29.21,North,0,0.0,0.0,45,0.00,,,0.00,,2013-10-10 22:53:00,
2013-10-10 19:12:00,68.0,49.0,29.21,North,0,0.0,0.0,51,0.00,,,0.00,,2013-10-10 23:12:00,
2013-10-10 19:23:00,68.0,49.0,29.21,North,0,0.0,0.0,51,0.00,,,0.00,,2013-10-10 23:23:00,
2013-10-10 19:43:00,64.0,52.0,29.21,North,0,0.0,0.0,66,0.00,,,0.00,,2013-10-10 23:43:00,
2013-10-10 19:53:00,64.0,52.0,29.21,North,0,0.0,0.0,66,0.00,,,0.00,,2013-10-10 23:53:00,
2013-10-10 20:11:00,61.0,51.0,29.21,North,0,0.0,0.0,70,0.00,,,0.00,,2013-10-11 00:11:00,
2013-10-10 20:22:00,59.0,52.0,29.21,North,0,0.0,0.0,78,0.00,,,0.00,,2013-10-11 00:22:00,
2013-10-10 20:42:00,58.0,52.0,29.21,North,0,0.0,0.0,81,0.00,,,0.00,,2013-10-11 00:42:00,
2013-10-10 20:52:00,57.0,52.0,29.21,North,0,0.0,0.0,84,0.00,,,0.00,,2013-10-11 00:52:00,
2013-10-10 21:12:00,57.0,53.0,29.21,North,0,0.0,0.0,87,0.00,,,0.00,,2013-10-11 01:12:00,
2013-10-10 21:22:00,57.0,53.0,29.21,North,0,0.0,0.0,87,0.00,,,0.00,,2013-10-11 01:22:00,
2013-10-10 21:32:00,57.0,53.0,29.21,North,0,0.0,0.0,87,0.00,,,0.00,,2013-10-11 01:32:00,
2013-10-10 21:52:00,55.0,53.0,29.21,North,0,0.0,0.0,93,0.00,,,0.00,,2013-10-11 01:52:00,
2013-10-10 22:12:00,54.0,53.0,29.21,North,0,0.0,0.0,95,0.00,,,0.00,,2013-10-11 02:12:00,
2013-10-10 22:22:00,54.0,53.0,29.21,North,0,0.0,0.0,95,0.00,,,0.00,,2013-10-11 02:22:00,
2013-10-10 22:32:00,54.0,53.0,29.21,North,0,0.0,0.0,95,0.00,,,0.00,,2013-10-11 02:32:00,
2013-10-10 22:42:00,54.0,53.0,29.21,North,0,0.0,0.0,95,0.00,,,0.00,,2013-10-11 02:42:00,
2013-10-10 22:52:00,53.0,52.0,29.21,North,0,0.0,0.0,96,0.00,,,0.00,,2013-10-11 02:52:00,
2013-10-10 23:11:00,53.0,52.0,29.21,North,0,0.0,0.0,96,0.00,,,0.00,,2013-10-11 03:11:00,
2013-10-10 23:21:00,52.0,51.0,29.21,North,0,0.0,0.0,97,0.00,,,0.00,,2013-10-11 03:21:00,
2013-10-10 23:23:00,52.0,51.0,29.21,North,0,0.0,0.0,97,0.00,,,0.00,,2013-10-11 03:23:00,
2013-10-10 23:34:00,52.0,51.0,29.21,North,0,0.0,0.0,97,0.00,,,0.00,,2013-10-11 03:34:00,
2013-10-10 23:44:00,52.0,51.0,29.21,North,0,0.0,0.0,97,0.00,,,0.00,,2013-10-11 03:44:00,
2013-10-10 23:54:00,52.0,51.0,29.21,North,0,0.0,0.0,97,0.00,,,0.00,,2013-10-11 03:54:00,